Wetterdaten: aktuell Montag, 10.08.2020 07:35
Datum Zeit Temp. A. Temp. A. min Feuchte A. Luftdruck Regen Wind Richtung Richtung Sonnenschein Solar Taupunkt Windchill Windben
10.08.2020 07:35 17,6 C 17,4 C 83 % 1021,0 hPa 0,0 l/m 0,3 km/h (0 Bft) N-NW 344 0 min 0 W/m 14,7 C 17,6 C 1,6 km/h (1 Bft)
10.08.2020 07:30 17,4 C 17,4 C 83 % 1020,9 hPa 0,0 l/m 0,1 km/h (0 Bft) N-NW 344 0 min 0 W/m 14,5 C 17,4 C 1,6 km/h (1 Bft)
10.08.2020 07:25 17,4 C 17,3 C 83 % 1020,8 hPa 0,0 l/m 0,0 km/h (0 Bft) N-NW 343 0 min 0 W/m 14,5 C 17,4 C 1,6 km/h (1 Bft)
10.08.2020 07:20 17,3 C 17,3 C 83 % 1020,8 hPa 0,0 l/m 0,0 km/h (0 Bft) N-NW 343 0 min 0 W/m 14,4 C 17,3 C 0,0 km/h (0 Bft)
10.08.2020 07:15 17,3 C 17,2 C 83 % 1020,8 hPa 0,0 l/m 0,0 km/h (0 Bft) N-NW 343 0 min 0 W/m 14,4 C 17,3 C 1,6 km/h (1 Bft)
10.08.2020 07:10 17,2 C 17,1 C 83 % 1020,8 hPa 0,0 l/m 0,0 km/h (0 Bft) N-NW 343 0 min 0 W/m 14,3 C 17,2 C 1,6 km/h (1 Bft)
10.08.2020 07:05 17,1 C 17,1 C 83 % 1020,7 hPa 0,0 l/m 0,4 km/h (0 Bft) N-NW 343 0 min 0 W/m 14,2 C 17,1 C 1,6 km/h (1 Bft)
10.08.2020 07:00 17,1 C 17,0 C 83 % 1020,7 hPa 0,0 l/m 1,3 km/h (1 Bft) N 355 0 min 0 W/m 14,2 C 17,1 C 3,2 km/h (1 Bft)
10.08.2020 06:55 17,1 C 17,0 C 83 % 1020,7 hPa 0,0 l/m 0,0 km/h (0 Bft) N 355 0 min 0 W/m 14,2 C 17,1 C 1,6 km/h (1 Bft)
10.08.2020 06:50 17,0 C 17,0 C 83 % 1020,7 hPa 0,0 l/m 0,0 km/h (0 Bft) N 360 0 min 0 W/m 14,1 C 17,0 C 0,0 km/h (0 Bft)
10.08.2020 06:45 17,1 C 17,1 C 82 % 1020,7 hPa 0,0 l/m 0,0 km/h (0 Bft) N 360 0 min 0 W/m 14,0 C 17,1 C 0,0 km/h (0 Bft)
10.08.2020 06:40 17,1 C 17,1 C 83 % 1020,8 hPa 0,0 l/m 0,0 km/h (0 Bft) N 360 0 min 0 W/m 14,2 C 17,1 C 0,0 km/h (0 Bft)
10.08.2020 06:35 17,1 C 17,1 C 83 % 1020,8 hPa 0,0 l/m 0,0 km/h (0 Bft) SW 215 0 min 0 W/m 14,2 C 17,1 C 0,0 km/h (0 Bft)
10.08.2020 06:30 17,1 C 17,1 C 82 % 1020,8 hPa 0,0 l/m 0,0 km/h (0 Bft) SW 216 0 min 0 W/m 14,0 C 17,1 C 0,0 km/h (0 Bft)
10.08.2020 06:25 17,1 C 17,1 C 82 % 1020,8 hPa 0,0 l/m 0,0 km/h (0 Bft) SW 217 0 min 0 W/m 14,0 C 17,1 C 0,0 km/h (0 Bft)
10.08.2020 06:20 17,2 C 17,1 C 82 % 1020,8 hPa 0,0 l/m 0,0 km/h (0 Bft) S-SW 212 0 min 0 W/m 14,1 C 17,2 C 0,0 km/h (0 Bft)
10.08.2020 06:15 17,2 C 17,2 C 82 % 1020,8 hPa 0,0 l/m 0,0 km/h (0 Bft) S-SW 212 0 min 0 W/m 14,1 C 17,2 C 0,0 km/h (0 Bft)
10.08.2020 06:10 17,2 C 17,2 C 82 % 1020,7 hPa 0,0 l/m 0,0 km/h (0 Bft) S-SW 212 0 min 0 W/m 14,1 C 17,2 C 0,0 km/h (0 Bft)
10.08.2020 06:05 17,3 C 17,3 C 82 % 1020,8 hPa 0,0 l/m 0,0 km/h (0 Bft) S-SW 212 0 min 0 W/m 14,2 C 17,3 C 0,0 km/h (0 Bft)
10.08.2020 06:00 17,3 C 17,3 C 82 % 1020,9 hPa 0,0 l/m 0,0 km/h (0 Bft) S-SW 212 0 min 0 W/m 14,2 C 17,3 C 0,0 km/h (0 Bft)
10.08.2020 05:55 17,3 C 17,3 C 82 % 1020,9 hPa 0,0 l/m 0,0 km/h (0 Bft) S-SW 212 0 min 0 W/m 14,2 C 17,3 C 0,0 km/h (0 Bft)
10.08.2020 05:50 17,3 C 17,3 C 82 % 1020,9 hPa 0,0 l/m 0,0 km/h (0 Bft) S-SW 212 0 min 0 W/m 14,2 C 17,3 C 0,0 km/h (0 Bft)
10.08.2020 05:45 17,4 C 17,4 C 81 % 1020,8 hPa 0,0 l/m 0,0 km/h (0 Bft) S-SW 212 0 min 0 W/m 14,1 C 17,4 C 0,0 km/h (0 Bft)
10.08.2020 05:40 17,4 C 17,4 C 81 % 1020,8 hPa 0,0 l/m 0,0 km/h (0 Bft) S-SW 212 0 min 0 W/m 14,1 C 17,4 C 0,0 km/h (0 Bft)
10.08.2020 05:35 17,5 C 17,5 C 81 % 1020,8 hPa 0,0 l/m 0,0 km/h (0 Bft) S-SW 212 0 min 0 W/m 14,2 C 17,5 C 0,0 km/h (0 Bft)
10.08.2020 05:30 17,6 C 17,6 C 81 % 1020,7 hPa 0,0 l/m 0,0 km/h (0 Bft) S-SW 212 0 min 0 W/m 14,3 C 17,6 C 0,0 km/h (0 Bft)
10.08.2020 05:25 17,6 C 17,6 C 81 % 1020,7 hPa 0,0 l/m 0,0 km/h (0 Bft) S-SW 212 0 min 0 W/m 14,3 C 17,6 C 0,0 km/h (0 Bft)
10.08.2020 05:20 17,7 C 17,7 C 80 % 1020,7 hPa 0,0 l/m 0,0 km/h (0 Bft) S-SW 212 0 min 0 W/m 14,2 C 17,7 C 0,0 km/h (0 Bft)
10.08.2020 05:15 17,7 C 17,7 C 80 % 1020,7 hPa 0,0 l/m 0,0 km/h (0 Bft) S-SW 212 0 min 0 W/m 14,2 C 17,7 C 0,0 km/h (0 Bft)
10.08.2020 05:10 17,8 C 17,8 C 80 % 1020,7 hPa 0,0 l/m 0,0 km/h (0 Bft) S-SW 212 0 min 0 W/m 14,3 C 17,8 C 0,0 km/h (0 Bft)
10.08.2020 05:05 17,8 C 17,8 C 80 % 1020,7 hPa 0,0 l/m 0,0 km/h (0 Bft) S-SW 212 0 min 0 W/m 14,3 C 17,8 C 0,0 km/h (0 Bft)
10.08.2020 05:00 17,9 C 17,9 C 80 % 1020,7 hPa 0,0 l/m 0,0 km/h (0 Bft) S-SW 212 0 min 0 W/m 14,4 C 17,9 C 0,0 km/h (0 Bft)
10.08.2020 04:55 17,9 C 17,9 C 80 % 1020,7 hPa 0,0 l/m 0,0 km/h (0 Bft) S-SW 212 0 min 0 W/m 14,4 C 17,9 C 1,6 km/h (1 Bft)
10.08.2020 04:50 17,9 C 17,9 C 79 % 1020,7 hPa 0,0 l/m 0,0 km/h (0 Bft) N-NO 14 0 min 0 W/m 14,2 C 17,9 C 0,0 km/h (0 Bft)
10.08.2020 04:45 18,0 C 18,0 C 79 % 1020,6 hPa 0,0 l/m 0,0 km/h (0 Bft) N-NO 14 0 min 0 W/m 14,3 C 18,0 C 0,0 km/h (0 Bft)
10.08.2020 04:40 18,1 C 18,1 C 79 % 1020,7 hPa 0,0 l/m 0,0 km/h (0 Bft) N-NO 14 0 min 0 W/m 14,4 C 18,1 C 0,0 km/h (0 Bft)
10.08.2020 04:35 18,1 C 18,1 C 78 % 1020,7 hPa 0,0 l/m 0,0 km/h (0 Bft) N-NO 14 0 min 0 W/m 14,2 C 18,1 C 0,0 km/h (0 Bft)
10.08.2020 04:30 18,2 C 18,2 C 78 % 1020,7 hPa 0,0 l/m 0,0 km/h (0 Bft) N-NO 14 0 min 0 W/m 14,3 C 18,2 C 0,0 km/h (0 Bft)
10.08.2020 04:25 18,3 C 18,3 C 78 % 1020,7 hPa 0,0 l/m 0,0 km/h (0 Bft) N-NO 14 0 min 0 W/m 14,4 C 18,3 C 0,0 km/h (0 Bft)
10.08.2020 04:20 18,3 C 18,3 C 78 % 1020,6 hPa 0,0 l/m 0,0 km/h (0 Bft) N-NO 14 0 min 0 W/m 14,4 C 18,3 C 0,0 km/h (0 Bft)
10.08.2020 04:15 18,4 C 18,4 C 78 % 1020,7 hPa 0,0 l/m 0,0 km/h (0 Bft) N-NO 14 0 min 0 W/m 14,5 C 18,4 C 0,0 km/h (0 Bft)
10.08.2020 04:10 18,4 C 18,4 C 78 % 1020,7 hPa 0,0 l/m 0,0 km/h (0 Bft) N-NO 14 0 min 0 W/m 14,5 C 18,4 C 0,0 km/h (0 Bft)
10.08.2020 04:05 18,6 C 18,6 C 77 % 1020,6 hPa 0,0 l/m 0,0 km/h (0 Bft) N-NO 14 0 min 0 W/m 14,5 C 18,6 C 0,0 km/h (0 Bft)
10.08.2020 04:00 18,6 C 18,6 C 77 % 1020,7 hPa 0,0 l/m 0,0 km/h (0 Bft) N-NO 14 0 min 0 W/m 14,5 C 18,6 C 0,0 km/h (0 Bft)
10.08.2020 03:55 18,7 C 18,7 C 77 % 1020,7 hPa 0,0 l/m 0,0 km/h (0 Bft) N-NO 14 0 min 0 W/m 14,6 C 18,7 C 0,0 km/h (0 Bft)
10.08.2020 03:50 18,7 C 18,7 C 76 % 1020,7 hPa 0,0 l/m 0,0 km/h (0 Bft) N-NO 14 0 min 0 W/m 14,4 C 18,7 C 0,0 km/h (0 Bft)
10.08.2020 03:45 18,8 C 18,8 C 76 % 1020,7 hPa 0,0 l/m 0,0 km/h (0 Bft) N-NO 14 0 min 0 W/m 14,5 C 18,8 C 0,0 km/h (0 Bft)
10.08.2020 03:40 18,9 C 18,9 C 76 % 1020,7 hPa 0,0 l/m 0,0 km/h (0 Bft) N-NO 14 0 min 0 W/m 14,6 C 18,9 C 0,0 km/h (0 Bft)
10.08.2020 03:35 18,9 C 18,9 C 76 % 1020,7 hPa 0,0 l/m 0,0 km/h (0 Bft) N-NO 14 0 min 0 W/m 14,6 C 18,9 C 0,0 km/h (0 Bft)
10.08.2020 03:30 19,0 C 19,0 C 76 % 1020,7 hPa 0,0 l/m 0,0 km/h (0 Bft) N-NO 14 0 min 0 W/m 14,7 C 19,0 C 0,0 km/h (0 Bft)
10.08.2020 03:25 19,1 C 19,1 C 75 % 1020,7 hPa 0,0 l/m 0,0 km/h (0 Bft) N-NO 14 0 min 0 W/m 14,6 C 19,1 C 0,0 km/h (0 Bft)
10.08.2020 03:20 19,1 C 19,1 C 75 % 1020,7 hPa 0,0 l/m 0,0 km/h (0 Bft) N-NO 14 0 min 0 W/m 14,6 C 19,1 C 0,0 km/h (0 Bft)
10.08.2020 03:15 19,2 C 19,2 C 75 % 1020,7 hPa 0,0 l/m 0,0 km/h (0 Bft) N-NO 14 0 min 0 W/m 14,7 C 19,2 C 0,0 km/h (0 Bft)
10.08.2020 03:10 19,3 C 19,3 C 75 % 1020,7 hPa 0,0 l/m 0,0 km/h (0 Bft) N-NO 14 0 min 0 W/m 14,8 C 19,3 C 0,0 km/h (0 Bft)
10.08.2020 03:05 19,3 C 19,3 C 75 % 1020,7 hPa 0,0 l/m 0,0 km/h (0 Bft) N-NO 14 0 min 0 W/m 14,8 C 19,3 C 0,0 km/h (0 Bft)
10.08.2020 03:00 19,4 C 19,4 C 75 % 1020,8 hPa 0,0 l/m 0,0 km/h (0 Bft) N-NO 14 0 min 0 W/m 14,8 C 19,4 C 0,0 km/h (0 Bft)
10.08.2020 02:55 19,5 C 19,5 C 74 % 1020,9 hPa 0,0 l/m 0,0 km/h (0 Bft) N-NO 14 0 min 0 W/m 14,7 C 19,5 C 0,0 km/h (0 Bft)
10.08.2020 02:50 19,6 C 19,6 C 74 % 1020,9 hPa 0,0 l/m 0,0 km/h (0 Bft) N-NO 14 0 min 0 W/m 14,8 C 19,6 C 0,0 km/h (0 Bft)
10.08.2020 02:45 19,7 C 19,7 C 73 % 1021,0 hPa 0,0 l/m 0,0 km/h (0 Bft) N-NO 14 0 min 0 W/m 14,7 C 19,7 C 0,0 km/h (0 Bft)
10.08.2020 02:40 19,8 C 19,8 C 73 % 1021,0 hPa 0,0 l/m 0,0 km/h (0 Bft) N-NO 14 0 min 0 W/m 14,8 C 19,8 C 0,0 km/h (0 Bft)
10.08.2020 02:35 19,8 C 19,8 C 73 % 1020,9 hPa 0,0 l/m 0,0 km/h (0 Bft) N-NO 14 0 min 0 W/m 14,8 C 19,8 C 0,0 km/h (0 Bft)
10.08.2020 02:30 19,9 C 19,9 C 72 % 1020,9 hPa 0,0 l/m 0,0 km/h (0 Bft) N-NO 14 0 min 0 W/m 14,7 C 19,9 C 0,0 km/h (0 Bft)
10.08.2020 02:25 19,9 C 19,9 C 71 % 1020,9 hPa 0,0 l/m 0,0 km/h (0 Bft) N-NO 14 0 min 0 W/m 14,5 C 19,9 C 0,0 km/h (0 Bft)
10.08.2020 02:20 20,1 C 20,1 C 71 % 1020,9 hPa 0,0 l/m 0,0 km/h (0 Bft) N-NO 14 0 min 0 W/m 14,7 C 20,1 C 0,0 km/h (0 Bft)
10.08.2020 02:15 20,1 C 20,1 C 71 % 1020,9 hPa 0,0 l/m 0,0 km/h (0 Bft) N-NO 14 0 min 0 W/m 14,7 C 20,1 C 0,0 km/h (0 Bft)
10.08.2020 02:10 20,2 C 20,2 C 71 % 1020,9 hPa 0,0 l/m 0,0 km/h (0 Bft) N-NO 14 0 min 0 W/m 14,8 C 20,2 C 0,0 km/h (0 Bft)
10.08.2020 02:05 20,3 C 20,3 C 70 % 1020,8 hPa 0,0 l/m 0,0 km/h (0 Bft) N-NO 14 0 min 0 W/m 14,6 C 20,3 C 0,0 km/h (0 Bft)
10.08.2020 02:00 20,3 C 20,3 C 70 % 1020,7 hPa 0,0 l/m 0,0 km/h (0 Bft) N-NO 14 0 min 0 W/m 14,6 C 20,3 C 0,0 km/h (0 Bft)
10.08.2020 01:55 20,4 C 20,4 C 70 % 1020,7 hPa 0,0 l/m 0,0 km/h (0 Bft) N-NO 14 0 min 0 W/m 14,7 C 20,4 C 0,0 km/h (0 Bft)
10.08.2020 01:50 20,4 C 20,4 C 69 % 1020,7 hPa 0,0 l/m 0,0 km/h (0 Bft) N-NO 14 0 min 0 W/m 14,5 C 20,4 C 0,0 km/h (0 Bft)
10.08.2020 01:45 20,4 C 20,4 C 69 % 1020,8 hPa 0,0 l/m 0,0 km/h (0 Bft) N-NO 14 0 min 0 W/m 14,5 C 20,4 C 0,0 km/h (0 Bft)
10.08.2020 01:40 20,4 C 20,4 C 69 % 1020,8 hPa 0,0 l/m 0,0 km/h (0 Bft) N-NO 14 0 min 0 W/m 14,5 C 20,4 C 0,0 km/h (0 Bft)
10.08.2020 01:35 20,4 C 20,4 C 69 % 1020,9 hPa 0,0 l/m 0,0 km/h (0 Bft) N 5 0 min 0 W/m 14,5 C 20,4 C 0,0 km/h (0 Bft)
10.08.2020 01:30 20,4 C 20,4 C 69 % 1020,9 hPa 0,0 l/m 0,0 km/h (0 Bft) N 5 0 min 0 W/m 14,5 C 20,4 C 0,0 km/h (0 Bft)
10.08.2020 01:25 20,4 C 20,4 C 69 % 1021,0 hPa 0,0 l/m 0,0 km/h (0 Bft) N 5 0 min 0 W/m 14,5 C 20,4 C 0,0 km/h (0 Bft)
10.08.2020 01:20 20,5 C 20,5 C 70 % 1021,0 hPa 0,0 l/m 0,0 km/h (0 Bft) N-NO 24 0 min 0 W/m 14,8 C 20,5 C 0,0 km/h (0 Bft)
10.08.2020 01:15 20,6 C 20,6 C 70 % 1021,1 hPa 0,0 l/m 0,0 km/h (0 Bft) N-NO 24 0 min 0 W/m 14,9 C 20,6 C 0,0 km/h (0 Bft)
10.08.2020 01:10 20,7 C 20,7 C 69 % 1021,1 hPa 0,0 l/m 0,0 km/h (0 Bft) N-NO 24 0 min 0 W/m 14,8 C 20,7 C 0,0 km/h (0 Bft)
10.08.2020 01:05 20,7 C 20,7 C 69 % 1021,1 hPa 0,0 l/m 0,0 km/h (0 Bft) N-NO 24 0 min 0 W/m 14,8 C 20,7 C 0,0 km/h (0 Bft)
10.08.2020 01:00 20,8 C 20,8 C 69 % 1021,1 hPa 0,0 l/m 0,0 km/h (0 Bft) N-NO 24 0 min 0 W/m 14,9 C 20,8 C 0,0 km/h (0 Bft)
10.08.2020 00:55 20,8 C 20,8 C 68 % 1021,1 hPa 0,0 l/m 0,0 km/h (0 Bft) N-NO 16 0 min 0 W/m 14,7 C 20,8 C 0,0 km/h (0 Bft)
10.08.2020 00:50 20,9 C 20,9 C 68 % 1021,1 hPa 0,0 l/m 0,0 km/h (0 Bft) NO 36 0 min 0 W/m 14,8 C 20,9 C 0,0 km/h (0 Bft)
10.08.2020 00:45 21,1 C 21,0 C 68 % 1021,1 hPa 0,0 l/m 0,0 km/h (0 Bft) NO 38 0 min 0 W/m 15,0 C 21,1 C 0,0 km/h (0 Bft)
10.08.2020 00:40 21,1 C 21,1 C 68 % 1021,2 hPa 0,0 l/m 0,0 km/h (0 Bft) NO 38 0 min 0 W/m 15,0 C 21,1 C 0,0 km/h (0 Bft)
10.08.2020 00:35 21,2 C 21,2 C 67 % 1021,2 hPa 0,0 l/m 0,0 km/h (0 Bft) NO 38 0 min 0 W/m 14,8 C 21,2 C 0,0 km/h (0 Bft)
10.08.2020 00:30 21,3 C 21,3 C 67 % 1021,3 hPa 0,0 l/m 0,0 km/h (0 Bft) NO 38 0 min 0 W/m 14,9 C 21,3 C 0,0 km/h (0 Bft)
10.08.2020 00:25 21,4 C 21,4 C 67 % 1021,3 hPa 0,0 l/m 0,0 km/h (0 Bft) NO 38 0 min 0 W/m 15,0 C 21,4 C 0,0 km/h (0 Bft)
10.08.2020 00:20 21,6 C 21,6 C 67 % 1021,3 hPa 0,0 l/m 0,0 km/h (0 Bft) NO 38 0 min 0 W/m 15,2 C 21,6 C 0,0 km/h (0 Bft)
10.08.2020 00:15 21,6 C 21,6 C 66 % 1021,3 hPa 0,0 l/m 0,0 km/h (0 Bft) NO 38 0 min 0 W/m 15,0 C 21,6 C 0,0 km/h (0 Bft)
10.08.2020 00:10 21,7 C 21,7 C 65 % 1021,2 hPa 0,0 l/m 0,0 km/h (0 Bft) NO 36 0 min 0 W/m 14,8 C 21,7 C 0,0 km/h (0 Bft)
10.08.2020 00:05 21,8 C 21,8 C 65 % 1021,2 hPa 0,0 l/m 0,0 km/h (0 Bft) NO 37 0 min 0 W/m 14,9 C 21,8 C 0,0 km/h (0 Bft)
10.08.2020 00:00 21,9 C 21,9 C 65 % 1021,2 hPa 0,0 l/m 0,0 km/h (0 Bft) NO 42 0 min 0 W/m 15,0 C 21,9 C 0,0 km/h (0 Bft)
_ Min-Zeit 06:50 06:50 00:00 04:05 - 00:00 - - - - 06:25 06:50 00:00
Minimum _ 17,0 C 17,0 C 65 % 1020,6 hPa - 0,0 km/h (0 Bft) - - - - 14,0 C 17,0 C 0,0 km/h (0 Bft)
_ Max-Zeit 00:00 00:00 06:35 00:15 00:00 07:00 - - 00:00 00:00 00:20 00:00 07:00
Maximum _ 22,0 C 21,9 C 83 % 1021,3 hPa 0,0 l/m 1,3 km/h
N (1 Bft)
- - 0 min 0 W/m 15,2 C 21,9 C 3,2 km/h
N (1 Bft)
Durchschnitt _ 19,0 C 18,9 C 76 % 1020,8 hPa #0,0 l/m 0,0 km/h (0 Bft) N - #0 min. 0 W/m 14,5 C 19,0 C 0,2 km/h (0 Bft)